Stündliche Wetter Julianka

Heute, 6 März, Samstag

Zeit Temperatur Niederschläge Wind Luftdruck Luftfeuchtigkeit
00:00 -4°C° 0 mm 3 m/S 760 mmHg 71%
01:00 -4°C° 0 mm 4 m/S 761 mmHg 74%
02:00 -4°C° 0 mm 4 m/S 761 mmHg 75%
03:00 -4°C° 0 mm 4 m/S 761 mmHg 75%
04:00 -4°C° 0 mm 3 m/S 761 mmHg 75%
05:00 -4°C° 0 mm 3 m/S 761 mmHg 74%
06:00 -4°C° 0 mm 3 m/S 761 mmHg 73%
07:00 -4°C° 0 mm 3 m/S 762 mmHg 72%
08:00 -2°C° 0 mm 3 m/S 762 mmHg 64%
09:00 -2°C° 0 mm 4 m/S 762 mmHg 56%
10:00 -1°C° 0 mm 4 m/S 763 mmHg 47%
11:00 0°C° 0 mm 4 m/S 762 mmHg 46%
12:00 +1°C° 0 mm 4 m/S 762 mmHg 44%
13:00 +1°C° 0 mm 5 m/S 761 mmHg 43%
14:00 +1°C° 0 mm 5 m/S 761 mmHg 44%
15:00 +1°C° 0 mm 5 m/S 761 mmHg 45%
16:00 +1°C° 0 mm 5 m/S 760 mmHg 46%
17:00 0°C° 0 mm 5 m/S 760 mmHg 51%
18:00 -1°C° 0 mm 5 m/S 759 mmHg 55%
19:00 -2°C° 0 mm 5 m/S 759 mmHg 60%
20:00 -2°C° 0 mm 5 m/S 758 mmHg 63%
21:00 -3°C° 0 mm 6 m/S 758 mmHg 65%
22:00 -3°C° 0 mm 6 m/S 758 mmHg 68%
23:00 -3°C° 0 mm 7 m/S 757 mmHg 73%

Morgen, 7 März, Sonntag

Zeit Temperatur Niederschläge Wind Luftdruck Luftfeuchtigkeit
00:00 -2°C° 0 mm 7 m/S 757 mmHg 77%
01:00 -2°C° 0 mm 8 m/S 756 mmHg 82%
02:00 -2°C° 0 mm 8 m/S 755 mmHg 80%
03:00 -3°C° 0 mm 9 m/S 755 mmHg 78%
04:00 -4°C° 0 mm 9 m/S 754 mmHg 76%
05:00 -4°C° 0 mm 9 m/S 754 mmHg 77%
06:00 -4°C° 0 mm 9 m/S 753 mmHg 77%
07:00 -4°C° 0 mm 10 m/S 753 mmHg 78%
08:00 -3°C° 0 mm 9 m/S 753 mmHg 78%
09:00 -3°C° 0 mm 9 m/S 753 mmHg 78%
10:00 -3°C° 0 mm 9 m/S 753 mmHg 78%
11:00 -1°C° 0 mm 9 m/S 752 mmHg 78%
12:00 -1°C° 0 mm 9 m/S 752 mmHg 79%
13:00 -1°C° 0 mm 9 m/S 752 mmHg 79%
14:00 -1°C° 0 mm 9 m/S 752 mmHg 79%
15:00 -1°C° 0 mm 9 m/S 751 mmHg 80%
16:00 -1°C° 0 mm 9 m/S 751 mmHg 80%
17:00 -2°C° 0.6 mm 8 m/S 751 mmHg 83%
18:00 -3°C° 0.6 mm 6 m/S 752 mmHg 87%
19:00 -2°C° 0.6 mm 5 m/S 752 mmHg 91%
20:00 -3°C° 0.2 mm 4 m/S 752 mmHg 86%
21:00 -3°C° 0.2 mm 4 m/S 752 mmHg 81%
22:00 -4°C° 0.2 mm 3 m/S 752 mmHg 76%
23:00 -4°C° 0 mm 3 m/S 752 mmHg 79%

übermorgen, 8 März, Montag

Zeit Temperatur Niederschläge Wind Luftdruck Luftfeuchtigkeit
00:00 -5°C° 0 mm 3 m/S 753 mmHg 81%
01:00 -5°C° 0 mm 3 m/S 753 mmHg 84%
02:00 -5°C° 0 mm 3 m/S 753 mmHg 83%
03:00 -5°C° 0 mm 3 m/S 753 mmHg 83%
04:00 -5°C° 0 mm 3 m/S 753 mmHg 83%
05:00 -5°C° 0 mm 3 m/S 753 mmHg 81%
06:00 -5°C° 0 mm 4 m/S 754 mmHg 80%
07:00 -4°C° 0 mm 4 m/S 754 mmHg 79%
08:00 -3°C° 0 mm 4 m/S 754 mmHg 73%
09:00 -2°C° 0 mm 5 m/S 754 mmHg 67%
10:00 -1°C° 0 mm 5 m/S 754 mmHg 62%
11:00 -1°C° 0.1 mm 5 m/S 755 mmHg 61%
12:00 -1°C° 0.1 mm 6 m/S 755 mmHg 60%
13:00 -1°C° 0.1 mm 6 m/S 755 mmHg 60%
14:00 -1°C° 0 mm 6 m/S 755 mmHg 60%
15:00 -2°C° 0 mm 6 m/S 755 mmHg 60%
16:00 -2°C° 0 mm 6 m/S 755 mmHg 60%
17:00 -2°C° 0 mm 5 m/S 756 mmHg 66%
18:00 -3°C° 0 mm 4 m/S 756 mmHg 71%
19:00 -4°C° 0 mm 3 m/S 757 mmHg 76%
20:00 -5°C° 0 mm 3 m/S 757 mmHg 78%
21:00 -4°C° 0 mm 2 m/S 757 mmHg 79%
22:00 -4°C° 0 mm 2 m/S 758 mmHg 80%
23:00 -4°C° 0 mm 2 m/S 758 mmHg 80%

9 März, Dienstag

Zeit Temperatur Niederschläge Wind Luftdruck Luftfeuchtigkeit
00:00 -2°C° 0 mm 1 m/S 758 mmHg 80%
01:00 -3°C° 0 mm 1 m/S 758 mmHg 80%
02:00 -2°C° 0 mm 1 m/S 758 mmHg 79%
03:00 -3°C° 0 mm 0 m/S 758 mmHg 78%
04:00 -3°C° 0 mm 0 m/S 758 mmHg 76%
05:00 -3°C° 0 mm 0 m/S 758 mmHg 75%
06:00 -2°C° 0 mm 1 m/S 758 mmHg 74%
07:00 -2°C° 0 mm 1 m/S 758 mmHg 73%
08:00 -1°C° 0 mm 1 m/S 758 mmHg 67%
09:00 -2°C° 0 mm 2 m/S 758 mmHg 61%
10:00 -1°C° 0 mm 2 m/S 758 mmHg 55%
11:00 -1°C° 0 mm 2 m/S 758 mmHg 51%
12:00 0°C° 0 mm 3 m/S 758 mmHg 46%
13:00 +1°C° 0 mm 3 m/S 758 mmHg 42%
14:00 +1°C° 0 mm 2 m/S 757 mmHg 44%
15:00 +1°C° 0 mm 2 m/S 757 mmHg 46%
16:00 +1°C° 0 mm 2 m/S 756 mmHg 48%
17:00 +1°C° 0 mm 1 m/S 756 mmHg 51%
18:00 +1°C° 0 mm 1 m/S 757 mmHg 54%
19:00 0°C° 0 mm 1 m/S 757 mmHg 57%
20:00 0°C° 0 mm 1 m/S 757 mmHg 59%
21:00 -2°C° 0 mm 2 m/S 756 mmHg 62%
22:00 -2°C° 0 mm 2 m/S 756 mmHg 64%
23:00 -2°C° 0 mm 2 m/S 756 mmHg 65%

10 März, Mittwoch

Zeit Temperatur Niederschläge Wind Luftdruck Luftfeuchtigkeit
00:00 -2°C° 0 mm 2 m/S 756 mmHg 66%
01:00 -2°C° 0 mm 2 m/S 756 mmHg 67%
02:00 -2°C° 0 mm 2 m/S 756 mmHg 68%
03:00 -2°C° 0 mm 2 m/S 756 mmHg 69%
04:00 -2°C° 0 mm 2 m/S 755 mmHg 70%
05:00 -2°C° 0 mm 2 m/S 755 mmHg 74%
06:00 -2°C° 0 mm 2 m/S 756 mmHg 78%
07:00 -2°C° 0 mm 2 m/S 756 mmHg 82%
08:00 -1°C° 0 mm 2 m/S 756 mmHg 79%
09:00 +1°C° 0 mm 2 m/S 756 mmHg 77%
10:00 +2°C° 0 mm 2 m/S 756 mmHg 74%
11:00 +2°C° 0 mm 2 m/S 756 mmHg 74%
12:00 +2°C° 0 mm 2 m/S 756 mmHg 74%
13:00 +3°C° 0 mm 2 m/S 756 mmHg 74%
14:00 +2°C° 0 mm 2 m/S 756 mmHg 77%
15:00 +2°C° 0 mm 2 m/S 756 mmHg 80%
16:00 +2°C° 0 mm 2 m/S 756 mmHg 83%
17:00 +2°C° 0 mm 2 m/S 756 mmHg 85%
18:00 +1°C° 0 mm 2 m/S 755 mmHg 88%
19:00 +1°C° 0 mm 2 m/S 755 mmHg 90%
20:00 +1°C° 0 mm 2 m/S 755 mmHg 92%
21:00 0°C° 0 mm 3 m/S 755 mmHg 95%
22:00 0°C° 0 mm 3 m/S 755 mmHg 98%
23:00 0°C° 0 mm 3 m/S 755 mmHg 97%

11 März, Donnerstag

Zeit Temperatur Niederschläge Wind Luftdruck Luftfeuchtigkeit
00:00 0°C° 0 mm 3 m/S 754 mmHg 97%
01:00 0°C° 0 mm 3 m/S 754 mmHg 97%
02:00 0°C° 0 mm 3 m/S 753 mmHg 96%
03:00 -1°C° 0 mm 4 m/S 753 mmHg 95%
04:00 -1°C° 0 mm 4 m/S 752 mmHg 94%
05:00 -1°C° 0 mm 5 m/S 751 mmHg 93%
06:00 -1°C° 0 mm 5 m/S 751 mmHg 91%
07:00 -2°C° 0 mm 6 m/S 750 mmHg 90%
08:00 -1°C° 0.2 mm 6 m/S 750 mmHg 89%
09:00 0°C° 0.2 mm 7 m/S 749 mmHg 88%
10:00 0°C° 0.2 mm 7 m/S 748 mmHg 87%
11:00 +2°C° 0.5 mm 7 m/S 748 mmHg 89%
12:00 +2°C° 0.5 mm 7 m/S 747 mmHg 90%
13:00 +2°C° 0.5 mm 7 m/S 747 mmHg 91%
14:00 +2°C° 0.3 mm 7 m/S 746 mmHg 90%
15:00 +3°C° 0.3 mm 7 m/S 746 mmHg 89%
16:00 +3°C° 0.3 mm 7 m/S 745 mmHg 88%
17:00 +4°C° 0.2 mm 7 m/S 745 mmHg 88%
18:00 +4°C° 0.2 mm 7 m/S 745 mmHg 89%
19:00 +4°C° 0.2 mm 7 m/S 745 mmHg 89%
20:00 +3°C° 0 mm 6 m/S 746 mmHg 89%
21:00 +3°C° 0 mm 5 m/S 746 mmHg 88%
22:00 +3°C° 0 mm 4 m/S 747 mmHg 88%
23:00 +2°C° 0 mm 5 m/S 747 mmHg 88%
Mehr zeigen

Wir brauchen deine Erlaubnis

Meteoprog und unser Service Anbieter werden persönliche Daten aufbewahren, so wie Cookies, Geräte Bezeichnung oder ähnliche Technologien von deinem Gerät und Prozess, so wie Persönliche Daten Inhalte und Werbungen, genauso wie social Media und den Verkehr zu analysieren.

  • Aufbewahrung und/oder Zugang zu deiner Geräte Informationen.

    Cookies, Geräte Bezeichnung oder andere Informationen, können aufbewahrt oder Zugang zu deinem Gerät erhalten, für den Grund, der oben angegeben wird.

  • Personalisierte Werbung und Inhalte, Messungen, Einblick in das Publikum und Produkt Entwicklung.

    Werbungen und Inhalte können personalisiert werden, basierend auf ein Profil. Mehr Daten können besser personalisierte Werbungen und Inhalte hinzufügen. Werbung und Inhalte können gezeigt und gemessen werden. Einblicke über das Publikum, welche die Werbung gesehen haben und den Inhalt, können abgeleitet werden. So wie Daten können genutzt werden, um es zu verbessern oder die Benutzer Erfahrung zu verbessern das System und die Software.

Wenn du “Ich stimme zu” klickst, erlaubst du uns, die Cookies zu benutzen die Geräte Bezeichnung, den Web oder ähnliche Technologien zu benutzen. Deine Settings, können in deinem Gerät bei deinem Browser geändert werden.

Für den bestimmten Zweck, berechtigten Interessen beruhen darauf, mehr als auf den Inhalt. Du kannst mehr darüber in unseren Privaten und Cookie Politik lesen.